Regional Weather Roundup
Issued by NWS Kansas City/Pleasant Hill, MO

Home | Current Version | Previous Version | Graphics & Text | Print | Product List | Glossary Off
Versions: 1 2 3 4 5 6 7 8 9 10 11 12 13 14 15 16 17 18 19 20 21 22 23 24 25 26 27

000
ASUS43 KEAX 251010
RWREAX

WEATHER ROUNDUP FOR EASTERN KANSAS AND NORTHWEST MISSOURI
NATIONAL WEATHER SERVICE KANSAS CITY/PLEASANT HILL MO
500 AM CDT THU AUG 25 2016

KSZ040-057-103>105-MOZ028-029-037-043-251100-
...KANSAS CITY METROPOLITAN AREA...

CITY           SKY/WX    TMP DP  RH WIND       PRES   REMARKS
K.C. INTL      LGT RAIN  71  68  90 W6        30.05R FOG
K.C. DOWNTOWN  CLOUDY    71  69  93 CALM      30.03S
LEES SUMMIT    CLOUDY    70  69  97 CALM      30.04F
OLATHE - IXD   CLOUDY    70  69  97 S8        30.05F
OLATHE - OJC   MOCLDY    68  68 100 S7        30.04F
LAWRENCE       MOCLDY    70  32  24 MISG      30.04F

$$

MOZ001>008-011>017-020>025-030>033-038>040-044>046-053-054-251100-
...NORTHERN AND CENTRAL MISSOURI...

CITY           SKY/WX    TMP DP  RH WIND       PRES   REMARKS
ST. JOSEPH     CLOUDY    70  68  93 NW5       30.04F
MOSBY          LGT RAIN  70  70 100 CALM      30.04F
WHITEMAN AFB   PTCLDY    69  69 100 CALM      30.03F
CLINTON        PTCLDY    72  70  94 CALM      30.03F
SEDALIA        CLOUDY    70  68  93 S7        30.05F
WARSAW         NOT AVBL
CHILLICOTHE      N/A     71  69  93 CALM      30.06R
KIRKSVILLE     CLOUDY    70  69  97 W3        30.05S

$$

MOZ041-047>049-056>058-063>065-088>090-097-251100-
...EASTERN AND SOUTHERN MISSOURI...

CITY           SKY/WX    TMP DP  RH WIND       PRES   REMARKS
ST. LOUIS INTL CLEAR     76  68  76 W5        30.06S
SPIRIT OF STL  CLEAR     71  71 100 CALM      30.05R
COLUMBIA       CLEAR     68  67  96 S5        30.07R
JEFFERSON CITY CLEAR     71  68  90 CALM      30.06R
ROLLA          CLEAR     69  68  96 SW5       30.08R
OSAGE BEACH    PTCLDY    72  70  93 CALM      30.08S
SPRINGFIELD    CLEAR     71  66  84 S7        30.08F
JOPLIN         CLEAR     71  65  81 S6        30.06F
WEST PLAINS    CLEAR     70  67  90 SW3       30.13S

$$

IAZ060-094-KSZ022-034>040-054-083-096-NEZ052-066-093-251100-
...KANSAS...SOUTHEAST NEBRASKA AND IOWA...

CITY           SKY/WX    TMP DP  RH WIND       PRES   REMARKS
TOPEKA         HVY RAIN  71  70  96 E5        30.02F FOG
MANHATTAN      CLOUDY    68  66  93 NE7       30.02F
EMPORIA        CLOUDY    70  69  97 SE3       30.02F
CHANUTE        PTCLDY    67  66  97 SE6       30.02F
WICHITA        TSTM      71  67  87 E6        30.03F
OMAHA          CLOUDY    60  57  89 N6        30.09S
LINCOLN        PTCLDY    59  56  89 N3        30.10S
FALLS CITY     PTCLDY    66  65  96 NW5       30.05S
LAMONI         CLOUDY    67  66  97 N7        30.05S
DES MOINES     CLOUDY    68  64  87 N5        30.06R

$$





USA.gov is the U.S. government's official web portal to all federal, state and local government web resources and services.